Weather History for Medicine Lodge, KS

Change the Weather History Date:

Monday, February 3, 2014

  Actual Average Record
Temperature  
Mean Temperature 23 °F 35 °F  
Max Temperature 34 °F 48 °F 80 °F (1934)
Min Temperature 12 °F 23 °F -8 °F (1989)
Degree Days  
Heating Degree Days 42 30  
Month to date heating degree days 122 90  
Since 1 July heating degree days 3114 2867  
Cooling Degree Days 0 0  
Month to date cooling degree days 0 0  
Year to date cooling degree days 0 0  
Moisture  
Dew Point 13 °F    
Average Humidity 59    
Maximum Humidity 85    
Minimum Humidity 32    
Precipitation  
Precipitation 0.03 in 0.03 in 3.35 in (2012)
Month to date precipitation 0.03 0.08  
Year to date precipitation 0.18 0.79  
Snow  
Snow 0.00 in 0.10 in - ()
Month to date snowfall 0.0 0.3  
Since 1 July snowfall 10.0 6.5  
Snow Depth 0.00 in    
Sea Level Pressure  
Sea Level Pressure 30.21 in    
Wind  
Wind Speed 7 mph (SE)    
Max Wind Speed 16 mph    
Max Gust Speed 22 mph    
T = Trace of Precipitation, MM = Missing Value Source: NWS Daily Summary

Daily Weather History Graph

Daily Weather History Graph

Search for Another Location

Airport:

Trip Planner

Search our weather history database for the weather conditions in past years. The results will help you decide how hot, cold, wet, or windy it might be!

Date:

Astronomy

Feb. 03, 2014 Rise Set
Actual Time 7:35 AM CST 6:01 PM CST
Civil Twilight 7:08 AM CST 6:28 PM CST
Nautical Twilight 6:37 AM CST 6:59 PM CST
Astronomical Twilight 6:06 AM CST 7:30 PM CST
Moon 9:45 AM CST (2/3) 10:45 PM CST (2/3)
Length of Visible Light 11h 20m
Length of Day
10h 25m
Waxing Crescent, 20% of the Moon is Illuminated
Feb 3
Waxing Crescent
Feb 6
First Quarter
Feb 14
Full
Feb 22
Last Quarter
Mar 1
New

Hourly Weather History & Observations

Time (CST) Temp. Windchill Dew Point Humidity Pressure Visibility Wind Dir Wind Speed Gust Speed Precip Events Conditions
12:56 AM 14.0 °F - 8.1 °F 77% 30.33 in - Calm Calm - N/A   Unknown
1:56 AM 12.9 °F - 7.0 °F 77% 30.30 in - Calm Calm - N/A   Unknown
2:56 AM 12.9 °F 6.9 °F 7.0 °F 77% 30.30 in - SE 3.5 mph - N/A   Unknown
3:56 AM 15.1 °F 6.4 °F 7.0 °F 70% 30.27 in - SE 5.8 mph - N/A   Unknown
4:56 AM 14.0 °F 8.2 °F 7.0 °F 74% 30.28 in - SE 3.5 mph - N/A   Unknown
5:56 AM 14.0 °F 8.2 °F 7.0 °F 74% 30.28 in - SE 3.5 mph - N/A   Unknown
6:56 AM 15.1 °F 9.4 °F 8.1 °F 74% 30.27 in - SE 3.5 mph - N/A   Unknown
7:56 AM 15.1 °F 7.7 °F 9.0 °F 77% 30.28 in - SSE 4.6 mph - N/A   Unknown
8:56 AM 18.0 °F 9.8 °F 12.0 °F 78% 30.30 in - SSE 5.8 mph - N/A   Unknown
9:56 AM 19.9 °F 11.1 °F 12.0 °F 71% 30.31 in - SSE 6.9 mph - N/A   Unknown
10:56 AM 23.0 °F 13.9 °F 10.0 °F 58% 30.29 in - SE 8.1 mph - N/A   Unknown
11:56 AM 25.0 °F 15.5 °F 9.0 °F 51% 30.27 in - South 9.2 mph - N/A   Unknown
12:56 PM 28.9 °F 18.6 °F 3.9 °F 35% 30.21 in - South 12.7 mph 18.4 mph N/A   Unknown
1:56 PM 32.0 °F 24.8 °F 6.1 °F 34% 30.16 in - SSE 8.1 mph 18.4 mph N/A   Unknown
2:56 PM 33.1 °F 24.9 °F 7.0 °F 34% 30.13 in - SSE 10.4 mph 18.4 mph N/A   Unknown
3:56 PM 34.0 °F 26.0 °F 10.9 °F 38% 30.11 in - SSE 10.4 mph 20.7 mph N/A   Unknown
4:56 PM 34.0 °F 25.5 °F 15.1 °F 46% 30.11 in - SE 11.5 mph - N/A   Unknown
5:56 PM 33.1 °F 26.9 °F 19.9 °F 59% 30.10 in - SSE 6.9 mph - N/A   Unknown
6:56 PM 32.0 °F 24.8 °F 21.9 °F 66% 30.10 in - SSE 8.1 mph - N/A   Unknown
7:56 PM 32.0 °F 25.6 °F 21.9 °F 66% 30.11 in - South 6.9 mph - N/A   Unknown
8:56 PM 32.0 °F 24.2 °F 25.0 °F 75% 30.11 in - SE 9.2 mph - N/A   Unknown
9:56 PM 30.9 °F 24.3 °F 25.0 °F 79% 30.12 in - SE 6.9 mph - N/A   Unknown
10:56 PM 30.9 °F 23.5 °F 27.0 °F 85% 30.10 in - SE 8.1 mph - 0.01 in   Unknown
11:56 PM 30.0 °F 24.1 °F 28.9 °F 96% 30.09 in - ESE 5.8 mph - 0.02 in   Unknown